Content
SEND FEEDBACK

Daily
Averages
Monthly
Summary
United States of America

ALPINE MEADOWS, CALIFORNIA


Home > North America > United States > California
Elevation: 6230 feet     Latitude: 39 12N     Longitude: 120 14W

WEATHER
 
SELECT A DAY
Number of Records: 282,401;   Date Range: 1/1/95 - 8/12/14
 
SHARE

PRINT THIS DATA

[ ← Previous Day ]
WEATHER ALMANAC - SEPTEMBER 15, 2013
[ Next Day → ]
[ °C ]   °F
Weather ElementAverageHighLow
Temperature55.4 °F77 °F (1:55 pm)37.4 °F (6:35 am)
Dewpoint37.6 °F46.4 °F (9:45 am)30.2 °F (11:50 am)
Humidity59.8 %100 % (3:35 am)19 % (11:50 am)
Barometer30.06 in30.09 in (11:15 pm)30.04 in (2:50 pm)
Wind Speed5.6 mph24.2 mph (2:50 pm)
Wind Gust39.1 mph (2:50 pm)
Weather ElementAverage
Visibility9.2 mi
Wind DirectionESE (122.6 °)

Weather ElementTotal
Precipitation---
Heating Degree Days7.8 (Base 65)
Growing Degree Days7.2 (Base 50)
Averaged from 50 records on September 15, 2013
WEATHER CONDITIONS BREAKOUT
WIND DIRECTION BREAKOUT
WEATHER BY HOUR - SEPTEMBER 15, 2013
[ °C ]   °F
Local TimeTemperatureDewpointHumidityBarometerVisibilityWind DirectionWind SpeedGust SpeedPrecipitationEventsConditions
12:35 AM50.0 °F44.6 °F82 %30.06 in10.0 miCalmClear
12:55 AM46.4 °F44.6 °F93 %30.05 in10.0 miCalmClear
1:15 AM46.4 °F42.8 °F87 %30.05 in10.0 miCalmClear
1:35 AM44.6 °F41.0 °F87 %30.05 in10.0 miSSE (160°)3.5 mphScattered Clouds
1:55 AM44.6 °F42.8 °F93 %30.05 in10.0 miWest (260°)3.5 mphPartly Cloudy
2:15 AM46.4 °F44.6 °F93 %30.06 in10.0 miCalmClear
2:35 AM46.4 °F42.8 °F87 %30.05 in10.0 miCalmClear
2:55 AM44.6 °F41.0 °F87 %30.05 in10.0 miCalmPartly Cloudy
3:15 AM44.6 °F42.8 °F93 %30.05 in10.0 miCalmScattered Clouds
3:35 AM44.6 °F44.6 °F100 %30.05 in10.0 miCalmMostly Cloudy
3:55 AM44.6 °F42.8 °F93 %30.05 in10.0 miCalmMostly Cloudy
4:15 AM44.6 °F42.8 °F93 %30.05 in10.0 miCalmPartly Cloudy
4:35 AM44.6 °F42.8 °F93 %30.05 in10.0 miCalmClear
4:55 AM42.8 °F41.0 °F93 %30.06 in4.0 miCalmClear
5:15 AM41.0 °F41.0 °F100 %30.05 in0.5 miCalmFogFog
5:35 AM41.0 °F41.0 °F100 %30.05 in2.5 miCalmPartly Cloudy
5:55 AM42.8 °F42.8 °F100 %30.05 in10.0 miCalmClear
6:15 AM41.0 °F41.0 °F100 %30.05 in6.0 miCalmClear
6:35 AM37.4 °F37.4 °F100 %30.05 in0.2 miSSE (150°)3.5 mphFogFog
6:55 AM39.2 °F39.2 °F100 %30.05 in7.0 miCalmFogShallow Fog
7:45 AM42.8 °F41.0 °F93 %30.06 in10.0 miCalmPartly Cloudy
8:50 AM51.8 °F44.6 °F76 %30.06 in10.0 miCalmPartly Cloudy
9:45 AM62.6 °F46.4 °F55 %30.06 in10.0 miCalmClear
10:45 AM73.4 °F33.8 °F23 %30.06 in10.0 miSSW (200°)13.8 mph28.8 mphPartly Cloudy
11:50 AM75.2 °F30.2 °F19 %30.06 in10.0 miSouth (190°)19.6 mph31.1 mphPartly Cloudy
12:55 PM75.2 °F32.0 °F21 %30.06 in10.0 miSW (220°)18.4 mph29.9 mphPartly Cloudy
1:55 PM77.0 °F32.0 °F19 %30.05 in10.0 miSW (230°)23.0 mph38.0 mphPartly Cloudy
2:50 PM75.2 °F32.0 °F21 %30.04 in10.0 miSW (220°)24.2 mph39.1 mphPartly Cloudy
3:45 PM75.2 °F35.6 °F24 %30.04 in10.0 miSW (220°)13.8 mph32.2 mphPartly Cloudy
4:45 PM73.4 °F35.6 °F25 %30.04 in10.0 miWSW (240°)20.7 mph28.8 mphPartly Cloudy
5:50 PM69.8 °F35.6 °F28 %30.05 in10.0 miSW (230°)17.3 mph23.0 mphClear
5:55 PM69.8 °F35.6 °F28 %30.05 in10.0 miSW (230°)13.8 mph23.0 mphClear
6:15 PM68.0 °F35.6 °F30 %30.05 in10.0 miSW (220°)10.4 mph20.7 mphClear
6:35 PM68.0 °F35.6 °F30 %30.05 in10.0 miWSW (240°)13.8 mph18.4 mphClear
6:55 PM66.2 °F33.8 °F30 %30.06 in10.0 miSW (220°)8.1 mph19.6 mphClear
7:15 PM64.4 °F32.0 °F30 %30.06 in10.0 miSW (220°)10.4 mph17.3 mphClear
7:35 PM62.6 °F32.0 °F32 %30.06 in10.0 miSSW (200°)8.1 mphClear
7:55 PM62.6 °F32.0 °F32 %30.06 in10.0 miSSW (210°)8.1 mphClear
8:15 PM60.8 °F32.0 °F34 %30.06 in10.0 miSSW (200°)6.9 mphClear
8:35 PM59.0 °F32.0 °F36 %30.07 in10.0 miWSW (240°)5.8 mphClear
8:55 PM59.0 °F32.0 °F36 %30.07 in10.0 miSW (230°)4.6 mphClear
9:15 PM59.0 °F32.0 °F36 %30.07 in10.0 miCalmClear
9:35 PM57.2 °F32.0 °F38 %30.08 in10.0 miWNW (300°)4.6 mphClear
9:55 PM57.2 °F33.8 °F41 %30.08 in10.0 miWest (270°)5.8 mphClear
10:15 PM57.2 °F33.8 °F41 %30.08 in10.0 miWest (270°)5.8 mphClear
10:35 PM57.2 °F33.8 °F41 %30.08 in10.0 miCalmClear
10:55 PM57.2 °F33.8 °F41 %30.08 in10.0 miWest (280°)3.5 mphClear
11:15 PM55.4 °F35.6 °F47 %30.09 in10.0 miWest (260°)3.5 mphClear
11:35 PM51.8 °F35.6 °F54 %30.09 in10.0 miSW (220°)3.5 mphClear
11:55 PM50.0 °F33.8 °F54 %30.09 in10.0 miCalmClear
Hourly data recorded from KTRK, located miles away from Alpine Meadows, California







STORIES FROM OUR PARTNERS